When you browse on this site, cookies collect data to enhance your experience and personalize the content and advertising you see.
Visit our Privacy Policy to learn more. By continuing to use the site, you agree to this use of cookies and data.
  • In Spain
  • List of Countries
  • For 7 days
  • Water Temperature
  • Satellite Maps
  • Weather Map
  • Weather Widgets
  • user-avatar
    Login

    Hourly Weather Oruro

    Today, 20 January, Sunday

    Time Temperature Precipitation Wind Pressure Humidity
    00:00 +8°C° 0 mm 5 mps 477 mmHg 60%
    01:00 +7°C° 0 mm 4 mps 477 mmHg 62%
    02:00 +7°C° 0 mm 4 mps 476 mmHg 64%
    03:00 +6°C° 0 mm 4 mps 476 mmHg 65%
    04:00 +7°C° 0 mm 3 mps 476 mmHg 67%
    05:00 +5°C° 0 mm 3 mps 475 mmHg 68%
    06:00 +7°C° 0 mm 2 mps 476 mmHg 64%
    07:00 +8°C° 0 mm 2 mps 477 mmHg 61%
    08:00 +9°C° 0 mm 2 mps 478 mmHg 57%
    09:00 +12°C° 0 mm 2 mps 479 mmHg 51%
    10:00 +13°C° 0 mm 2 mps 479 mmHg 45%
    11:00 +15°C° 0 mm 1 mps 480 mmHg 39%
    12:00 +16°C° 0 mm 1 mps 480 mmHg 35%
    13:00 +18°C° 0 mm 1 mps 481 mmHg 31%
    14:00 +20°C° 0 mm 1 mps 481 mmHg 27%
    15:00 +19°C° 0 mm 2 mps 481 mmHg 27%
    16:00 +19°C° 0 mm 4 mps 480 mmHg 26%
    17:00 +19°C° 0 mm 5 mps 480 mmHg 26%
    18:00 +17°C° 0 mm 6 mps 479 mmHg 30%
    19:00 +15°C° 0 mm 7 mps 479 mmHg 34%
    20:00 +12°C° 0 mm 8 mps 478 mmHg 39%
    21:00 +11°C° 0 mm 8 mps 478 mmHg 44%
    22:00 +10°C° 0 mm 7 mps 477 mmHg 49%
    23:00 +9°C° 0 mm 6 mps 477 mmHg 54%

    Tomorrow, 21 January, Monday

    Time Temperature Precipitation Wind Pressure Humidity
    00:00 +8°C° 0 mm 6 mps 477 mmHg 56%
    01:00 +8°C° 0 mm 5 mps 476 mmHg 59%
    02:00 +7°C° 0 mm 4 mps 476 mmHg 61%
    03:00 +7°C° 0 mm 4 mps 476 mmHg 63%
    04:00 +7°C° 0 mm 3 mps 475 mmHg 65%
    05:00 +7°C° 0 mm 3 mps 475 mmHg 67%
    06:00 +7°C° 0 mm 3 mps 476 mmHg 62%
    07:00 +8°C° 0 mm 2 mps 477 mmHg 56%
    08:00 +9°C° 0 mm 2 mps 478 mmHg 51%
    09:00 +12°C° 0 mm 2 mps 479 mmHg 41%
    10:00 +14°C° 0 mm 2 mps 480 mmHg 31%
    11:00 +16°C° 0 mm 2 mps 481 mmHg 21%
    12:00 +17°C° 0 mm 3 mps 481 mmHg 18%
    13:00 +19°C° 0 mm 4 mps 482 mmHg 16%
    14:00 +20°C° 0 mm 4 mps 482 mmHg 13%
    15:00 +20°C° 0 mm 6 mps 482 mmHg 14%
    16:00 +20°C° 0 mm 7 mps 481 mmHg 16%
    17:00 +20°C° 0 mm 8 mps 481 mmHg 18%
    18:00 +17°C° 0 mm 9 mps 480 mmHg 25%
    19:00 +15°C° 0 mm 9 mps 479 mmHg 32%
    20:00 +12°C° 0 mm 9 mps 478 mmHg 39%
    21:00 +11°C° 0 mm 9 mps 478 mmHg 45%
    22:00 +10°C° 0 mm 8 mps 478 mmHg 50%
    23:00 +9°C° 0 mm 8 mps 478 mmHg 56%

    Day after tomorrow, 22 January, Tuesday

    Time Temperature Precipitation Wind Pressure Humidity
    00:00 +9°C° 0 mm 7 mps 478 mmHg 58%
    01:00 +8°C° 0 mm 6 mps 477 mmHg 60%
    02:00 +7°C° 0 mm 5 mps 477 mmHg 62%
    03:00 +7°C° 0 mm 4 mps 476 mmHg 64%
    04:00 +6°C° 0 mm 4 mps 476 mmHg 66%
    05:00 +7°C° 0 mm 3 mps 476 mmHg 67%
    06:00 +8°C° 0 mm 3 mps 477 mmHg 63%
    07:00 +8°C° 0 mm 3 mps 478 mmHg 58%
    08:00 +9°C° 0 mm 3 mps 479 mmHg 53%
    09:00 +11°C° 0 mm 3 mps 480 mmHg 44%
    10:00 +13°C° 0 mm 4 mps 481 mmHg 36%
    11:00 +15°C° 0 mm 4 mps 482 mmHg 28%
    12:00 +17°C° 0 mm 4 mps 482 mmHg 25%
    13:00 +18°C° 0 mm 4 mps 482 mmHg 23%
    14:00 +19°C° 0 mm 5 mps 482 mmHg 21%
    15:00 +19°C° 0 mm 5 mps 481 mmHg 22%
    16:00 +19°C° 0 mm 6 mps 481 mmHg 24%
    17:00 +19°C° 0 mm 6 mps 480 mmHg 25%
    18:00 +16°C° 0 mm 7 mps 480 mmHg 33%
    19:00 +13°C° 0 mm 8 mps 479 mmHg 41%
    20:00 +11°C° 0 mm 9 mps 478 mmHg 49%
    21:00 +10°C° 0 mm 8 mps 478 mmHg 53%
    22:00 +10°C° 0 mm 7 mps 478 mmHg 57%
    23:00 +9°C° 0 mm 6 mps 478 mmHg 62%

    23 January, Wednesday

    Time Temperature Precipitation Wind Pressure Humidity
    00:00 +8°C° 0 mm 5 mps 478 mmHg 63%
    01:00 +8°C° 0 mm 4 mps 477 mmHg 65%
    02:00 +8°C° 0 mm 3 mps 477 mmHg 66%
    03:00 +8°C° 0 mm 3 mps 476 mmHg 69%
    04:00 +7°C° 0 mm 3 mps 476 mmHg 71%
    05:00 +7°C° 0 mm 2 mps 476 mmHg 73%
    06:00 +8°C° 0 mm 2 mps 477 mmHg 69%
    07:00 +8°C° 0 mm 2 mps 478 mmHg 65%
    08:00 +9°C° 0 mm 2 mps 478 mmHg 61%
    09:00 +11°C° 0 mm 3 mps 480 mmHg 54%
    10:00 +13°C° 0 mm 4 mps 481 mmHg 46%
    11:00 +14°C° 0 mm 4 mps 482 mmHg 38%
    12:00 +15°C° 0.1 mm 5 mps 482 mmHg 37%
    13:00 +16°C° 0.1 mm 6 mps 481 mmHg 35%
    14:00 +16°C° 0.1 mm 7 mps 481 mmHg 34%
    15:00 +16°C° 0 mm 7 mps 481 mmHg 35%
    16:00 +16°C° 0 mm 7 mps 480 mmHg 35%
    17:00 +16°C° 0 mm 7 mps 480 mmHg 36%
    18:00 +15°C° 0 mm 7 mps 479 mmHg 40%
    19:00 +14°C° 0 mm 7 mps 479 mmHg 45%
    20:00 +11°C° 0 mm 7 mps 478 mmHg 49%
    21:00 +11°C° 0 mm 7 mps 478 mmHg 53%
    22:00 +10°C° 0 mm 6 mps 478 mmHg 56%
    23:00 +9°C° 0 mm 6 mps 479 mmHg 60%

    24 January, Thursday

    Time Temperature Precipitation Wind Pressure Humidity
    00:00 +9°C° 0 mm 6 mps 478 mmHg 63%
    01:00 +8°C° 0 mm 5 mps 477 mmHg 65%
    02:00 +8°C° 0 mm 4 mps 477 mmHg 68%
    03:00 +7°C° 0 mm 4 mps 477 mmHg 70%
    04:00 +8°C° 0 mm 3 mps 476 mmHg 72%
    05:00 +7°C° 0 mm 3 mps 476 mmHg 73%
    06:00 +8°C° 0 mm 3 mps 477 mmHg 69%
    07:00 +8°C° 0 mm 4 mps 478 mmHg 64%
    08:00 +8°C° 0 mm 4 mps 479 mmHg 60%
    09:00 +10°C° 0 mm 5 mps 480 mmHg 51%
    10:00 +14°C° 0 mm 5 mps 481 mmHg 43%
    11:00 +16°C° 0 mm 6 mps 483 mmHg 34%
    12:00 +17°C° 0 mm 6 mps 483 mmHg 30%
    13:00 +19°C° 0 mm 6 mps 483 mmHg 26%
    14:00 +20°C° 0 mm 7 mps 483 mmHg 23%
    15:00 +20°C° 0 mm 7 mps 482 mmHg 24%
    16:00 +20°C° 0 mm 7 mps 481 mmHg 25%
    17:00 +18°C° 0 mm 8 mps 481 mmHg 26%
    18:00 +17°C° 0 mm 8 mps 480 mmHg 32%
    19:00 +15°C° 0 mm 8 mps 479 mmHg 38%
    20:00 +12°C° 0 mm 8 mps 479 mmHg 44%
    21:00 +11°C° 0 mm 7 mps 479 mmHg 47%
    22:00 +10°C° 0 mm 5 mps 478 mmHg 51%
    23:00 +11°C° 0 mm 4 mps 478 mmHg 55%

    25 January, Friday

    Time Temperature Precipitation Wind Pressure Humidity
    00:00 +10°C° 0 mm 4 mps 478 mmHg 57%
    01:00 +8°C° 0 mm 4 mps 477 mmHg 60%
    02:00 +9°C° 0 mm 3 mps 476 mmHg 62%
    03:00 +8°C° 0 mm 3 mps 476 mmHg 65%
    04:00 +8°C° 0 mm 3 mps 476 mmHg 67%
    05:00 +7°C° 0 mm 2 mps 476 mmHg 69%
    06:00 +8°C° 0 mm 2 mps 477 mmHg 66%
    07:00 +9°C° 0 mm 2 mps 477 mmHg 62%
    08:00 +9°C° 0 mm 2 mps 478 mmHg 59%
    09:00 +12°C° 0 mm 2 mps 479 mmHg 48%
    10:00 +14°C° 0 mm 2 mps 480 mmHg 38%
    11:00 +16°C° 0 mm 2 mps 481 mmHg 28%
    12:00 +17°C° 0 mm 2 mps 481 mmHg 24%
    13:00 +18°C° 0 mm 2 mps 481 mmHg 20%
    14:00 +21°C° 0 mm 1 mps 481 mmHg 17%
    15:00 +20°C° 0 mm 2 mps 481 mmHg 17%
    16:00 +20°C° 0 mm 2 mps 481 mmHg 16%
    17:00 +21°C° 0 mm 3 mps 480 mmHg 16%
    18:00 +19°C° 0 mm 4 mps 479 mmHg 22%
    19:00 +16°C° 0 mm 6 mps 479 mmHg 28%
    20:00 +15°C° 0 mm 7 mps 478 mmHg 34%
    21:00 +14°C° 0 mm 7 mps 478 mmHg 36%
    22:00 +13°C° 0 mm 6 mps 478 mmHg 38%
    23:00 +12°C° 0 mm 5 mps 478 mmHg 40%
    Show more